ロヴァシュ第2彗星

184P/Lovas 2 (2020)

English version
Home page
Updated on December 11, 2020

---------------------------------------------------------------------

・ プロフィール

・ 写真集

・ 軌道要素

Epoch 2020 Nov. 7.0 TT = JDT 2459160.5
T 2020 Oct. 26.18691 TT                                 Rudenko
q   1.7032656            (2000.0)            P               Q
n   0.13342796     Peri.  186.43646     +0.99994358     +0.00501401
a   3.7929008      Node   173.25497     -0.00171094     +0.94610259
e   0.5509333      Incl.    4.57327     -0.01048396     +0.32382826
P   7.39
From 321 observations 1986 Dec. 2-2020 Sept. 21, mean residual 0".8.

・ 光度変化

        m1 = 16.0 + 5 logΔ + 10.0 log r(t - 100)

---------------------------------------------------------------------

軌道要素はM.P.E.C. 2020-S188に掲載されたものです。
光度グラフはComet for Windowsで作成したものです。

---------------------------------------------------------------------

Copyright(C) Seiichi Yoshida (comet@aerith.net). All rights reserved.